Satellite-Ground Cal/Val Site Overpasses Predictions

Prediction of Satellite NPP Overpassing Cal/Val Site: Antarctic Dome C

Ground Cal/Val Site Location: Latitude: -75.10, Longitude: 123.35; Satellite-Ground Site NADIR distance within 100 km.

Table of predicted overpasses for the next 14.0 days since TLE Epoch: 4/10/2020
Interval Starting Time Ending Time Minimum Distance Time Minimum Distance (km)
1 04/11/2020 14:54:37 04/11/2020 14:55:05 04/11/2020 14:54:51 21.75
2 04/12/2020 14:35:54 04/12/2020 14:36:09 04/12/2020 14:36:01 85.25
3 04/13/2020 07:37:27 04/13/2020 07:37:54 04/13/2020 07:37:41 35.79
4 04/14/2020 07:18:41 04/14/2020 07:19:00 04/14/2020 07:18:50 74.38
5 04/16/2020 15:00:55 04/16/2020 15:01:19 04/16/2020 15:01:07 58.84
6 04/17/2020 14:42:06 04/17/2020 14:42:31 04/17/2020 14:42:18 50.31
7 04/18/2020 07:43:47 04/18/2020 07:44:07 04/18/2020 07:43:57 70.88
8 04/19/2020 07:24:54 04/19/2020 07:25:21 04/19/2020 07:25:07 37.14
9 04/21/2020 15:07:21 04/21/2020 15:07:28 04/21/2020 15:07:24 96.58
10 04/22/2020 14:48:20 04/22/2020 14:48:49 04/22/2020 14:48:35 14.70


NCC Satellite Cal/Val Overpasses Prediction Service
